Starlink 5003

operational
NORAD ID: 53905 Int'l Des: 2022-119 Owner: SPXS Country: US Constellation: starlink
LEOCIRCULAR

Starlink 5003について

説明を読み込み中...

リアルタイム位置

3D地球を読み込み中...

次回通過

高度履歴

Altitude vs Time

uPlot chart will show altitude changes over time

軌道要素

1 53905U 22119V 25351.16716656 -.00000464 00000-0 -11072-4 0 9992
2 53905 53.2177 324.7970 0001433 87.3946 272.7210 15.08838459179367
Epoch: Dec 17, 2025 • Age: 10 hours

現在のステータス

高度 545.7 km
速度 7.59 km/s
衛星直下点 -19.74°S, 144.96°W
打ち上げ日 Sep 24, 2022
運用期間 3.2 years
タイプ internet

技術仕様

分類 Payload
質量 305.00 kg
乾燥質量 290.00 kg
総質量 305.00 kg
長さ 0.20 m
直径 2.80 m
スパン 9.00 m
形状 Box + pan
製造者 SPXS
バスタイプ Starlink
フェーズステータス In Orbit
所有者/国 SPXS/US

大規模コンステレーション

Loading constellations...